Location: Unspecified
(47.6577°N, 23.5639°E)
Time: 20:36:55
(UTC+03:00)

ISS - Pass Details

Date: 05 February 2017
Orbit: 402 x 409 km, 51.6° (Epoch: 25 May)

Event Time Altitude Azimuth Distance (km) Brightness Sun altitude
Rises 18:07:58 0° 258° (WSW) 2,335 2.7 -6.3°
Reaches altitude 10° 18:10:05 10° 263° (W) 1,472 0.7 -6.7°
Maximum altitude 18:13:20 57° 344° (NNW) 485 -3.4 -7.2°
Enters shadow 18:16:35 10° 64° (ENE) 1,467 -1.6 -7.7°
